軌道要素
The following improved orbital elements, by Kenji Muraoka, are
from 211 observations 1995 Sept. 18 to 1996 June 25, perturbations
by 9 Planets, Moon and 5 minor planets were taken into account.
The mean residual is +/- 0.97 arc seconds.
Epoch = 1995 Oct. 10.0 TT JDT = 2450000.5
T = 1995 Oct. 6.02381 +/- 0.00002 (m.e.) TT
Peri. = 12.97682 +/- 0.00004
Node = 79.61807 +/- 0.00003 (2000.0)
Incl. = 85.39119 +/- 0.00002
q = 0.6588922 +/- 0.0000001 AU
e = 0.9627360 +/- 0.0000014
a = 17.6817347 +/- 0.0000364 AU
n = 0.01325613 +/- 0.00000004
P = 74.351 +/- 0.0002297 years
|